• Join FlightAware (Why Join?)
  • Login
  • US Flag 
11:40AM EDT


 

Airport Tracker/Info


-or-


 

Live Flight TrackerFlight Track Log ✈ ASH1070 ✈ 02-May-2013 ✈ PHNL - PHOG / OGG

Flight Track Log - Related Links

Times and Time Zones

All times are in EDT time to prevent confusion due to time zone crossing. See the ASH1070 flight status page for this flight to view local times or setup timezone preferences in your user account.

Time Position Orientation Groundspeed Altitude Reporting Facility
EDT Latitude Longitude Course Direction KTS MPH feet Rate Location/Type
03:47PM 21.3167 -157.8833 163° South 160 184 1,000  Level Honolulu Center
03:48PM 21.2667 -157.8667 163° South 200 230 3,200 2,040 Climbing Honolulu Center
03:49PM 21.2333 -157.8000 118° Southeast 270 311 5,200 2,340 Climbing Honolulu Center
03:50PM 21.2000 -157.7333 118° Southeast 280 322 8,000 2,520 Climbing Honolulu Center
03:51PM 21.1500 -157.6667 129° Southeast 290 334 10,200 1,740 Climbing Honolulu Center
03:52PM 21.1167 -157.5833 113° Southeast 310 357 11,500 1,140 Climbing Honolulu Center
03:53PM 21.0667 -157.5000 123° Southeast 340 391 12,500 960 Climbing Honolulu Center
03:54PM 21.0167 -157.4000 118° Southeast 360 414 13,500 960 Climbing Honolulu Center
03:55PM 20.9833 -157.3000 110° East 370 426 14,500 720 Climbing Honolulu Center
03:56PM 20.9333 -157.2000 118° Southeast 370 426 15,000  Climbing Honolulu Center
03:57PM 20.8833 -157.1000 118° Southeast 400 460 14,500 -1,140 Descending Honolulu Center
03:58PM 20.8500 -157.0000 110° East 350 403 12,800 -1,740 Descending Honolulu Center
03:59PM 20.8000 -156.9167 123° Southeast 310 357 11,100 -1,740 Descending Honolulu Center
04:00PM 20.7667 -156.8333 113° Southeast 280 322 9,400 -1,800 Descending Honolulu Center
04:01PM 20.7500 -156.7667 105° East 260 299 7,600 -1,920 Descending Honolulu Center
04:02PM 20.7167 -156.7000 118° Southeast 270 311 5,600 -2,040 Descending Honolulu Center
04:03PM 20.7167 -156.6167 90° East 280 322 3,600 -1,380 Descending Honolulu Center
04:04PM 20.7333 -156.5500 75° East 250 288 2,900 -480 Descending Honolulu Center
04:05PM 20.7833 -156.5000 43° Northeast 190 219 2,700 -600 Descending Honolulu Center
04:06PM 20.8167 -156.4833 25° Northeast 180 207 1,700 -1,020 Descending Honolulu Center